This demonstration page uses our WeatherBlox Daily Observations layout. Learn more.

Left ArrowRight Arrow

38.89511, -77.03637

Hourly Observations for October 19, 2021

Temp ( °F °C ) Dew Point ( °F °C ) Humidity (%) Winds ( mph kmh ) Pressure ( in mb ) Visibility ( mi km ) Precip ( " mm )
12:52 am 00:52 Clear 54 12.2 40 4.4 59 59 N N/A 30.10 1019 10 16 N/A
1:52 am 01:52 Clear 54 12.2 40 4.4 59 59 N N/A 30.11 1020 10 16 N/A
2:52 am 02:52 Clear 51 10.6 37 2.8 59 59 WNW 5 7 30.12 1020 10 16 N/A
3:52 am 03:52 Clear 52 11.1 38 3.3 59 59 WNW 5 7 30.12 1020 10 16 N/A
4:52 am 04:52 Clear 50 10 40 4.4 68 68 N N/A 30.14 1021 10 16 N/A
5:52 am 05:52 Clear 48 8.9 40 4.4 74 74 N 5 7 30.14 1021 10 16 N/A
6:52 am 06:52 Clear 48 8.9 41 5 77 77 N N/A 30.15 1021 10 16 N/A
7:52 am 07:52 Sunny 48 8.9 41 5 77 77 SSW 6 9 30.16 1021 10 16 N/A
8:52 am 08:52 Sunny 54 12.2 42 5.6 64 64 SW 3 6 30.18 1022 10 16 N/A
9:52 am 09:52 Sunny 59 15 41 5 51 51 WSW 7 11 30.19 1022 10 16 N/A
10:52 am 10:52 Sunny 63 17.2 40 4.4 43 43 W 9 15 30.19 1022 10 16 N/A
11:52 am 11:52 Sunny 68 20 41 5 38 38 W 9 15 30.16 1022 10 16 N/A
12:52 pm 12:52 Sunny 71 21.7 42 5.6 35 35 WNW 12 19 30.14 1021 10 16 N/A
1:52 pm 13:52 Sunny 72 22.2 42 5.6 34 34 W 14 22 30.11 1020 10 16 N/A
2:52 pm 14:52 Sunny 74 23.3 42 5.6 32 32 WNW 10 17 30.09 1019 10 16 N/A
3:52 pm 15:52 Sunny 74 23.3 42 5.6 32 32 W 9 15 30.07 1018 10 16 N/A
4:52 pm 16:52 Sunny 74 23.3 41 5 31 31 WNW 10 17 30.07 1018 10 16 N/A
5:52 pm 17:52 Sunny 71 21.7 44 6.7 38 38 SW 7 11 30.07 1018 10 16 N/A
6:52 pm 18:52 Clear 68 20 43 6.1 40 40 WSW 7 11 30.09 1019 10 16 N/A
7:52 pm 19:52 Clear 66 18.9 44 6.7 45 45 SW 6 9 30.10 1019 10 16 N/A
8:52 pm 20:52 Clear 63 17.2 45 7.2 52 52 SW 7 11 30.11 1020 10 16 N/A
9:52 pm 21:52 Clear 62 16.7 45 7.2 54 54 WSW 3 6 30.11 1020 10 16 N/A
10:52 pm 22:52 Clear 61 16.1 46 7.8 58 58 SSW 5 7 30.12 1020 10 16 N/A
11:52 pm 23:52 Clear 61 16.1 44 6.7 54 54 WSW 5 7 30.12 1020 10 16 N/A

Powered by AerisWeather